[[{"header":{"parameterUnit":"m.s-1","parameterCategory":1,"la1":30.2992,"la2":30.254,"lo1":-89.0895,"lo2":-89.0443,"dy":0.0025,"dx":0.0025,"nx":19,"ny":19,"refTime":"2026-04-08T21:00:00:Z","depth":0,"parameterNumber":2,"parameterNumberName":"U-component_of_WINDS"},"data":[0,0,0,-6.1725,-6.1728,-6.1848,-6.1848,-6.2045,-6.2047,0,0,0,0,0,0,0,0,0,0,0,-6.1717,-6.172,-6.1724,-6.1728,-6.1848,-6.1848,-6.2045,-6.2047,0,0,0,0,0,0,0,0,0,0,0,-6.1716,-6.1719,-6.1722,-6.1729,-6.1848,-6.1848,-6.2044,-6.1938,0,0,0,0,0,0,0,0,0,0,-6.1814,-6.1835,-6.1718,-6.1722,-6.173,-6.1848,-6.1848,-6.1932,-6.1945,-6.201,0,-6.2078,0,-6.2066,-6.2064,-6.2064,0,0,0,-6.1707,-6.1825,-6.1832,-6.1723,-6.1731,-6.1848,-6.1788,-6.1939,-6.1953,-6.2027,-6.208,-6.2086,-6.2069,-6.2065,-6.2066,-6.2518,-6.2521,0,0,-6.17,-6.1754,-6.1822,-6.1843,-6.1828,-6.1784,-6.1792,-6.1946,-6.2007,-6.2081,-6.209,-6.2073,-6.2067,-6.2069,-6.2515,-6.2518,0,0,0,-6.1696,-6.1751,-6.1752,-6.1836,-6.1854,-6.1788,-6.1797,-6.2,-6.1996,-6.2092,-6.2075,-6.2068,-6.2071,-6.2511,-6.2516,-6.272,0,0,0,-6.1691,-6.1747,-6.175,-6.1785,-6.1852,-6.1929,-6.1848,-6.1985,-6.2001,-6.2074,-6.2068,-6.2073,-6.2508,-6.2514,-6.2707,-6.2806,0,0,0,-6.17,-6.1748,-6.1775,-6.1787,-6.1841,-6.1925,-6.1929,-6.1988,-6.1992,-6.2065,-6.2074,-6.2505,-6.2513,-6.2695,-6.2787,-6.2938,0,0,0,-6.1725,-6.1957,-6.178,-6.2031,-6.184,-6.2052,-6.1928,-6.2083,-6.2169,-6.2069,-6.2508,-6.2516,-6.2691,-6.2775,-6.2926,-6.3073,-6.3141,0,0,-6.2047,-6.1997,-6.2141,-6.1986,-6.2242,-6.2029,-6.2314,-6.2343,-6.2301,-6.2447,-6.2458,-6.2711,-6.2786,-6.2936,-6.3503,-6.3557,0,0,0,-6.2261,-6.2364,-6.242,-6.2505,-6.2533,-6.2563,-6.2543,-6.2553,-6.2674,-6.2388,-6.2806,-6.2849,-6.2935,-6.3002,-6.3048,-6.3117,-6.255,-6.2549,-6.2549,-6.2791,-6.2725,-6.2956,-6.2904,-6.2988,-6.2964,-6.3025,-6.3034,-6.2943,-6.3043,-6.3085,-6.3438,-6.3519,-6.3553,-6.3625,-6.316,-6.3161,-6.3161,-6.3162,-6.3253,-6.3388,-6.3261,-6.344,-6.3368,-6.3517,-6.3502,-6.3432,-6.3559,-6.3401,-6.3473,-6.3303,-6.3614,-6.3673,-6.3177,-6.3174,-6.3172,-6.3171,-6.317,-6.3591,-6.3643,-6.3652,-6.3766,-6.3861,-6.38,-6.3928,-6.3858,-6.3794,-6.3865,-6.39,-6.3896,-6.3881,-6.3887,-6.3889,-6.389,-6.3891,-6.3892,-6.3893,-6.3936,-6.3939,-6.4055,-6.4103,-6.4147,-6.4196,-6.4174,-6.4214,-6.4242,-6.418,-6.418,-6.4078,-6.3659,-6.3552,-6.3911,-6.3908,-6.3905,-6.3904,-6.3902,-6.4423,-6.4302,-6.4481,-6.4526,-6.4574,-6.4672,-6.4582,-6.4671,-6.4695,-6.476,-6.4642,-6.4345,-6.4288,-6.4251,-6.4163,-6.4658,-6.4658,-6.4658,-6.4658,-6.4705,-6.4671,-6.4836,-6.4911,-6.4977,-6.4913,-6.5115,-6.51,-6.5065,-6.5075,-6.4994,-6.4872,-6.4838,-6.4801,-6.4752,-6.4668,-6.5281,-6.5282,-6.5282,-6.4999,-6.4967,-6.5154,-6.5117,-6.515,-6.518,-6.5367,-6.5456,-6.5391,-6.5306,-6.508,-6.5054,-6.4856,-6.4796,-6.4703,-6.4629,-6.4473,0,0]},{"header":{"parameterUnit":"m.s-1","parameterCategory":1,"la1":30.2992,"la2":30.254,"lo1":-89.0895,"lo2":-89.0443,"dy":0.0025,"dx":0.0025,"nx":19,"ny":19,"refTime":"2026-04-08T21:00:00:Z","depth":0,"parameterNumber":3,"parameterNumberName":"V-component_of_WINDS"},"data":[0,0,0,0.845,0.8451,0.8492,0.8492,0.8563,0.8564,0,0,0,0,0,0,0,0,0,0,0,0.845,0.8451,0.845,0.8452,0.8492,0.8492,0.8563,0.8564,0,0,0,0,0,0,0,0,0,0,0,0.8449,0.845,0.8451,0.8452,0.8492,0.8492,0.8563,0.8526,0,0,0,0,0,0,0,0,0,0,0.8483,0.8493,0.845,0.8452,0.8452,0.8492,0.8492,0.8523,0.8528,0.8553,0,0.8579,0,0.8573,0.857,0.857,0,0,0,0.8443,0.849,0.849,0.8452,0.8453,0.8492,0.8471,0.8526,0.8531,0.8559,0.8579,0.8582,0.8574,0.8571,0.8571,0.8748,0.8749,0,0,0.8441,0.8463,0.8487,0.8494,0.8489,0.847,0.8473,0.8528,0.8552,0.858,0.8583,0.8575,0.8571,0.8572,0.8746,0.8748,0,0,0,0.844,0.8462,0.8461,0.8492,0.8498,0.8471,0.8474,0.8549,0.8547,0.8584,0.8576,0.8572,0.8573,0.8745,0.8747,0.8831,0,0,0,0.8438,0.8461,0.846,0.8474,0.8497,0.8524,0.8494,0.8543,0.8549,0.8576,0.8572,0.8574,0.8744,0.8746,0.8825,0.8867,0,0,0,0.8443,0.8462,0.8472,0.8475,0.8494,0.8522,0.8523,0.8544,0.8545,0.8571,0.8574,0.8743,0.8746,0.8821,0.8859,0.8921,0,0,0,0.8455,0.8544,0.8473,0.857,0.8494,0.8574,0.8523,0.8581,0.8613,0.8572,0.8744,0.8747,0.8819,0.8854,0.8916,0.8978,0.9006,0,0,0.858,0.856,0.8615,0.8553,0.8652,0.8566,0.8677,0.8684,0.8666,0.8722,0.8726,0.8827,0.8858,0.892,0.9151,0.9173,0,0,0,0.8663,0.8703,0.8724,0.8756,0.8765,0.8777,0.8765,0.8768,0.8815,0.8699,0.8865,0.8883,0.8918,0.8947,0.8966,0.8995,0.8761,0.876,0.876,0.8872,0.8845,0.8935,0.8914,0.8946,0.8934,0.8958,0.896,0.8922,0.8962,0.8979,0.9122,0.9157,0.9171,0.9202,0.9008,0.9009,0.9009,0.9009,0.9054,0.9107,0.9057,0.9127,0.9098,0.9156,0.915,0.9121,0.9172,0.9107,0.9137,0.9069,0.9196,0.9222,0.9015,0.9014,0.9013,0.9013,0.9012,0.9188,0.9209,0.9213,0.9258,0.9297,0.9271,0.9324,0.9295,0.9268,0.9297,0.9313,0.9312,0.9308,0.9307,0.9307,0.9308,0.9308,0.9309,0.9309,0.9327,0.9328,0.9376,0.9395,0.9413,0.9433,0.9424,0.9441,0.9453,0.9428,0.9428,0.9388,0.9213,0.917,0.9317,0.9315,0.9314,0.9314,0.9313,0.9523,0.9475,0.9549,0.9567,0.9588,0.963,0.9593,0.9631,0.9641,0.9668,0.9621,0.9497,0.9474,0.9459,0.9423,0.9626,0.9626,0.9626,0.9626,0.9638,0.9624,0.9694,0.9726,0.9754,0.9729,0.9815,0.981,0.9796,0.9801,0.9768,0.9718,0.9704,0.969,0.9669,0.9636,0.9888,0.9889,0.9889,0.9758,0.9746,0.9824,0.9811,0.9826,0.984,0.992,0.996,0.9934,0.9899,0.9805,0.9794,0.9714,0.9688,0.9651,0.962,0.9558,0,0]}]]